Regional Weather Roundup
Issued by NWS

Home | Current Version | Previous Version | Graphics & Text | Print | Product List | Glossary Off
Versions: 1 2 3 4 5 6 7 8 9 10 11 12 13 14 15 16 17 18 19 20 21 22 23 24 25 26 27 28 29 30 31 32 33 34 35 36 37 38 39 40 41 42 43 44 45 46 47 48 49 50

000
ASUS43 KTOP 240659
RWRKS

WEATHER ROUNDUP FOR KANSAS
NATIONAL WEATHER SERVICE GOODLAND KS
200 AM CDT TUE MAY 24 2016

NOTE:  "FAIR" INDICATES FEW OR NO CLOUDS BELOW 12,000 FEET WITH NO
SIGNIFICANT WEATHER AND/OR OBSTRUCTIONS TO VISIBILITY.

KSZ001>006-013>018-027>032-041>047-240800-
NORTHWEST KANSAS

CITY           SKY/WX    TMP DP  RH WIND       PRES   REMARKS
GOODLAND       PTCLDY    52  46  80 N5        29.84F
HAYS           CLOUDY    70  61  73 E6        29.80R
HILL CITY      TSTM      63  61  93 E6        29.82R FOG
RUSSELL        CLOUDY    68  66  93 N6        29.81R
$$

KSZ061>065-074>080-084>089-240800-
SOUTHWEST KANSAS

CITY           SKY/WX    TMP DP  RH WIND       PRES   REMARKS
DODGE CITY     PTCLDY    68  67  96 S17G28    29.77F
ELKHART          N/A     66  61  84 S20         N/A
GARDEN CITY    CLOUDY    70  66  87 S22G30    29.77F
GREAT BEND     CLOUDY    72  63  73 S12G17    29.78R
LIBERAL        CLEAR     70  63  78 S13       29.80F
$$

KSZ066>073-081>083-090>101-240800-
SOUTHEAST KANSAS

CITY           SKY/WX    TMP DP  RH WIND       PRES   REMARKS
CHANUTE        CLOUDY    66  62  87 SE9       29.87F
COFFEYVILLE    CLOUDY    66  63  90 SE5       29.88F
HUTCHINSON     CLOUDY    69  66  90 S17       29.81R
MEDICINE LODGE   N/A     71  67  87 S13       29.78F
NEWTON         CLOUDY    66  61  82 S14G20    29.85R
PARSONS        CLOUDY    67  64  90 SE6       29.88F
WICHITA INTL   CLOUDY    70  66  87 S16       29.80F
WICHITA JABRA  CLOUDY    67  66  97 S14       29.81F
WICHITA MCCONL CLOUDY    68  66  94 S15G23    29.82S
WINFIELD       CLOUDY    69  65  86 S10       29.84F
$$

KSZ007>012-019>026-033>040-048>060-102>105-240800-
NORTHEAST KANSAS

CITY           SKY/WX    TMP DP  RH WIND       PRES   REMARKS
CONCORDIA      CLOUDY    66  63  90 E7        29.87R
EMPORIA        CLOUDY    64  61  90 SE9       29.85F
LAWRENCE       CLEAR     62  61  96 SE7       29.88F
MANHATTAN      CLOUDY    68  62  81 S8        29.84S
OLATHE IND     PTCLDY    62  61  96 S9        29.89F
OLATHE EXE     CLEAR     60  59  96 SE7       29.89F
SALINA         CLOUDY    70  66  87 S5        29.83R
TOPEKA BILLARD CLEAR     63  60  90 SE3       29.87S
TOPEKA FORBES  CLEAR     64  60  87 SE6       29.87R
$$



USA.gov is the U.S. government's official web portal to all federal, state and local government web resources and services.